Home > Weather > Leer > Past weeks

Flag for Germany Past Weather in Leer, Lower Saxony, Germany — Yesterday and Last 2 Weeks

Now
59 °F

Drizzle. Partly sunny.


Feels Like: 60 °F
Forecast: 52 / 62 °F
Wind: 3 mph from West

Location: Emden-Koenigspolder

Current Time: Jun 26, 2016 at 10:48:57 PM

Latest Report: Jun 26, 2016 at 10:00 PM


Visibility: 9 mi

Pressure: 29.99 "Hg

Humidity: 82%

Dew Point: 54 °F

Location of LeerLocation

Past Weather in Leer — Graph

°F

Leer Temperature Yesterday

Maximum temperature yesterday: 62 °F (at 3:00 PM)
Minimum temperature yesterday: 54 °F (at 3:00 AM)
Average temperature yesterday: 58 °F

High & Low Weather Summary for the Past Weeks

 TemperatureHumidityPressure
High80 °F (Jun 23, 1:00 PM)100% (Jun 14, 12:00 AM)30.24 "Hg (Jun 14, 12:00 AM)
Low52 °F (Jun 16, 6:00 AM)54% (Jun 22, 4:00 PM)29.41 "Hg (Jun 14, 6:00 PM)
Average61 °F84%29.86 "Hg
* Reported Jun 11 9:00 PM — Jun 26 9:00 PM, Leer, Weather by CustomWeather, © 2016

Note: Actual official high and low records may vary slightly from our data, if they occured in-between our weather recording intervals... More about our weather records

Advertising

Leer Weather History for the Previous 24 Hours

Scroll right to see more
 ConditionsComfort  
Time TempWeatherWind HumidityBarometerVisibility
9:00 PM
Sun, Jun 26
60 °FPartly sunny.3 mph83%29.98 "Hg17 mi
7:00 PM64 °FScattered clouds.5 mph73%29.97 "Hg34 mi
6:00 PM61 °FLight rain. Overcast.5 mph83%29.99 "Hg16 mi
4:00 PM57 °FLight rain. Overcast.5 mph90%29.99 "Hg17 mi
3:00 PM56 °FHeavy rain. Overcast.3 mph93%29.99 "Hg3 mi
1:00 PM63 °FLight rain. Overcast.6 mph68%29.97 "Hg25 mi
12:00 PM62 °FPartly sunny.7 mph70%29.97 "Hg22 mi
10:00 AM60 °FPartly sunny.7 mph79%29.96 "Hg12 mi
9:00 AM58 °FPartly sunny.6 mph87%29.96 "Hg6 mi
7:00 AM56 °FScattered clouds.3 mph94%29.95 "Hg3 mi
6:00 AM55 °FScattered clouds.2 mph95%29.94 "Hg3 mi
4:00 AM56 °FClear.2 mph96%29.94 "Hg4 mi
3:00 AM57 °FOvercast.2 mph97%29.94 "Hg4 mi
1:00 AM57 °FOvercast.2 mph96%29.96 "Hg9 mi
12:00 AM56 °FOvercast.N/A95%29.96 "Hg9 mi
10:00 PM
Sat, Jun 25
57 °FLight rain. Overcast.3 mph96%29.95 "Hg6 mi
Weather by CustomWeather, © 2016

See weather overviewHow to use our weather pages